Flag for Canada Weather past 2 weeks in Kelowna, British Columbia, Canada

Now
82 °F

Sunny.


Feels Like: 81 °F
Forecast: 58 / 97 °F
Wind: 3 mph from North

Location: Kelowna Airport

Current Time: Aug 2, 2015 at 12:08:27 PM

Latest Report: Aug 2, 2015 at 11:00 AM


Visibility: 9 mi

Pressure: 29.89 "Hg

Humidity: 26%

Dew point: 45 °F

Location of KelownaLocation

Historic Weather in Kelowna — Graph

°F

Kelowna temperature yesterday

Maximum temperature yesterday: 95 °F (at 3:00 PM)
Minimum temperature yesterday: 54 °F (at 5:00 AM)
Average temperature yesterday: 76 °F

Past Weeks' High & Low Weather Summary

 TemperatureHumidityPressure
High97 °F (Jul 31, 4:00 PM)100% (Jul 27, 4:00 AM)30.23 "Hg (Jul 27, 4:00 AM)
Low50 °F (Jul 26, 5:00 AM)11% (Jul 31, 2:00 PM)29.69 "Hg (Jul 20, 4:00 PM)
Average71 °F46%29.94 "Hg
* Reported Jul 18 11:00 AM — Aug 2 11:00 AM, Kelowna, Weather by CustomWeather, © 2015

Note: Actual official high and low records may vary slightly from our data, if they occured in-between our weather recording intervals... More about our weather records

Advertising

Kelowna weather history for previous 24 hours

 ConditionsComfort  
Time TempWeatherWind HumidityBarometerVisibility
11:00 AM
Sun, Aug 2
82 °FSunny.3 mph26%29.89 "Hg9 mi
10:00 AM79 °FSunny.5 mph28%29.90 "Hg9 mi
9:00 AM75 °FSunny.5 mph39%29.91 "Hg9 mi
8:00 AM70 °FSunny.3 mph46%29.91 "Hg9 mi
7:00 AM61 °FSunny.2 mph63%29.92 "Hg9 mi
6:00 AM59 °FClear.6 mph63%29.89 "Hg9 mi
5:00 AM57 °FClear.2 mph63%29.88 "Hg9 mi
4:00 AM57 °FClear.5 mph67%29.89 "Hg9 mi
3:00 AM59 °FPassing clouds.3 mph59%29.88 "Hg9 mi
2:00 AM61 °FClear.2 mph55%29.87 "Hg9 mi
1:00 AM57 °FClear.3 mph67%29.87 "Hg9 mi
12:00 AM63 °FClear.2 mph52%29.85 "Hg9 mi
11:00 PM
Sat, Aug 1
63 °FClear.2 mph56%29.85 "Hg9 mi
10:00 PM68 °FClear.3 mph46%29.84 "Hg9 mi
9:00 PM73 °FSunny.5 mph38%29.81 "Hg9 mi
8:00 PM84 °FSunny.8 mph23%29.79 "Hg9 mi
7:00 PM91 °FSunny.9 mph16%29.80 "Hg9 mi
6:00 PM93 °FSunny.13 mph13%29.81 "Hg9 mi
5:00 PM93 °FSunny.9 mph13%29.82 "Hg9 mi
4:03 PM95 °FSunny.6 mph12%29.83 "Hg7 mi
3:00 PM95 °FSunny.8 mph12%29.86 "Hg9 mi
2:00 PM93 °FSunny.5 mph12%29.88 "Hg6 mi
1:00 PM90 °FSunny.5 mph15%29.90 "Hg9 mi
12:00 PM88 °FSunny.8 mph18%29.92 "Hg9 mi
Weather by CustomWeather, © 2015

See weather overviewHow to use our weather pages